Regional Weather Roundup
Issued by NWS Raleigh/Durham, NC

Home | Current Version | Previous Version | Text Only | Print | Product List | Glossary On
Versions: 1 2 3 4 5 6 7 8 9 10 11 12 13 14 15 16 17 18 19 20 21 22 23 24 25 26 27 28 29 30 31 32 33 34 35 36 37 38 39 40 41 42 43 44 45 46 47 48 49 50
000
ASUS42 KRAH 290010
RWRRAH
NORTH CAROLINA WEATHER ROUNDUP
NATIONAL WEATHER SERVICE RALEIGH NC
800 PM EDT WED JUN 28 2017

NOTE: "FAIR" INDICATES FEW OR NO CLOUDS BELOW 12,000 FEET WITH NO
SIGNIFICANT WEATHER AND/OR OBSTRUCTIONS TO VISIBILITY.

NCZ001-053-055-056-065-067-290100-
WESTERN NORTH CAROLINA

CITY           SKY/WX    TMP DP  RH WIND       PRES   REMARKS
ASHEVILLE      CLEAR     73  54  51 S9        30.21R
JEFFERSON      PTCLDY    65  55  68 SE3       30.24S
MORGANTON      CLEAR     74  60  60 CALM      30.21S
HICKORY        CLEAR     77  57  50 CALM      30.17R
RUTHERFORDTON  CLEAR     77  58  52 S5        30.17S
MOUNT AIRY     CLEAR     76  57  50 S3        30.19S
BOONE          NOT AVBL
$$

NCZ021-022-025-041-071-084-088-290100-
CENTRAL NORTH CAROLINA

CITY           SKY/WX    TMP DP  RH WIND       PRES   REMARKS
CHARLOTTE      PTCLDY    80  55  42 S6        30.16S
GREENSBORO     PTCLDY    76  58  53 S8        30.17R
WINSTON-SALEM  CLEAR     77  55  46 S6        30.17S
RALEIGH-DURHAM PTCLDY    79  54  41 S6        30.18R
FORT BRAGG     CLEAR     79  55  43 E5        30.16R
FAYETTEVILLE   CLEAR     82  59  45 E5        30.16R
BURLINGTON     CLEAR     77  58  51 SE3       30.16S
LAURINBURG     CLEAR     82  58  43 SE6       30.16R
$$

NCZ011-015-027-028-043-044-047-080-103-290100-
NORTHEASTERN NORTH CAROLINA

CITY           SKY/WX    TMP DP  RH WIND       PRES   REMARKS
ROCKY MT-WILSO CLEAR     76  60  57 CALM      30.17S
GREENVILLE     CLEAR     81  54  39 E3        30.18S
WASHINGTON     PTCLDY   N/A N/A N/A E6        30.18S
ELIZABETH CITY CLEAR     73  59  61 E10       30.19S
MANTEO         CLEAR     72  59  64 E10       30.20S
CAPE HATTERAS  NOT AVBL
$$

NCZ078-087-090-091-093-098-101-290100-
SOUTHEASTERN NORTH CAROLINA

CITY           SKY/WX    TMP DP  RH WIND       PRES   REMARKS
LUMBERTON      CLEAR     81  56  42 SE5       30.15R
GOLDSBORO      CLEAR     81  55  40 CALM      30.15S
KINSTON        CLEAR     81  54  39 E3        30.18R
KENANSVILLE    CLEAR     75  59  57 CALM      30.17S
NEW BERN       CLEAR     78  60  53 E5        30.19R
CHERRY POINT   CLEAR     78  60  53 E9        30.18S
BEAUFORT       CLEAR     78  56  46 E6        30.18R
JACKSONVILLE   CLEAR     77  61  57 SE9       30.17R
WILMINGTON     CLEAR     79  58  48 E6        30.17R
$$




USA.gov is the U.S. government's official web portal to all federal, state and local government web resources and services.